SCP
0 0 0 0 0 0 0 0 0 0 0 0 0 0 0 0 0 0 1 1 1 1 1 1 1 0 0 0 0 0 0 0 0 0 0 0 0 0 0 0 0 0 0 0 0 0 0 0 0
0 0 0 0 0 0 0 0 0 0 0 0 0 0 0 0 0 0 1 1 1 1 1 1 1 0 0 0 0 0 0 0 0 0 0 0 0 0 0 0 0 0 0 0 0 0 0 0 0
0 0 0 0 0 0 0 0 0 0 0 0 0 0 0 1 1 1 1 1 1 1 1 1 1 1 0 0 0 0 0 0 0 0 0 0 0 0 0 0 0 0 0 0 0 0 0 0 0
0 0 0 0 0 0 0 0 0 0 0 0 0 0 1 1 1 1 1 1 1 1 1 1 1 1 0 0 0 0 0 0 0 0 0 0 0 0 0 0 0 0 0 0 0 0 0 0 -0
0 0 0 0 0 0 0 0 0 0 0 0 0 1 1 1 1 1 1 1 1 1 1 1 1 1 1 0 0 0 0 0 0 0 0 0 0 0 0 0 0 0 0 0 0 0 0 0 -0
0 0 0 0 0 0 0 0 0 0 0 0 0 1 1 1 1 1 1 1 1 1 1 1 1 1 1 1 0 0 0 0 0 0 0 0 0 0 0 0 0 0 0 0 0 0 0 -0 -0
0 0 0 0 0 0 0 0 0 0 0 0 0 1 1 1 1 1 1 1 1 1 1 1 1 1 1 1 0 0 0 0 0 0 0 0 0 0 0 0 0 0 0 0 0 0 0 -0 -0
0 0 0 0 0 0 0 0 0 0 0 0 0 1 1 1 1 1 1 1 1 1 1 1 1 1 1 0 0 0 0 0 0 0 0 0 0 0 0 0 0 0 0 0 0 0 0 -0 -0
0 0 0 0 0 0 0 0 0 0 0 0 1 1 1 1 1 1 1 1 2 2 1 1 1 1 0 0 0 0 0 0 0 0 0 0 0 0 0 0 0 0 0 0 0 0 0 -0 0
0 0 0 0 0 0 0 0 0 0 0 0 1 1 1 1 1 1 1 2 2 2 2 1 1 1 0 0 0 0 0 0 0 0 0 0 0 0 0 0 0 0 0 0 0 0 0 0 0
0 0 0 0 0 0 0 0 0 0 0 0 1 1 1 1 1 1 1 2 2 2 2 1 1 1 1 1 1 0 0 0 0 0 0 0 0 0 0 0 0 0 0 0 0 0 0 0 0
0 0 0 0 0 0 0 0 0 0 0 0 1 1 1 1 1 2 2 2 2 2 2 2 1 1 1 1 1 1 1 0 0 0 0 0 0 0 0 0 0 0 0 0 0 0 0 0 0
0 0 0 0 0 0 0 0 0 0 0 0 1 1 1 1 2 2 2 2 2 3 2 2 2 2 2 1 1 1 1 1 1 1 0 0 0 0 0 0 0 0 0 0 0 0 0 0 0
0 0 0 0 0 0 0 0 0 0 0 0 1 1 1 1 2 2 2 2 3 3 3 2 2 2 2 2 1 1 1 1 1 1 1 0 0 0 0 0 0 0 0 0 0 0 0 0 0
0 0 0 0 0 0 0 0 0 0 0 0 1 1 1 2 2 2 2 3 3 3 3 2 2 2 2 2 1 1 1 1 1 1 1 0 0 0 0 0 0 0 0 0 0 0 0 0 0
0 0 0 0 0 0 0 0 0 0 0 1 1 1 2 2 2 2 2 2 2 2 2 2 2 2 2 1 1 1 1 1 1 1 0 0 0 0 0 0 0 0 0 0 0 0 0 0 0
0 0 0 0 0 0 0 0 0 0 0 1 1 1 1 2 2 2 2 2 2 2 2 2 2 1 1 1 1 1 1 1 1 0 0 0 0 0 0 0 0 0 0 0 0 0 0 0 0
0 0 0 0 0 0 0 0 0 0 0 1 1 1 1 1 1 1 1 1 2 2 2 2 1 1 1 1 1 1 1 1 0 0 0 0 0 0 0 0 0 0 0 0 0 0 0 0 0
0 0 0 0 0 0 0 0 0 0 0 1 1 1 1 1 1 1 1 1 1 1 1 1 1 1 1 1 1 1 1 0 0 0 0 0 0 0 0 0 0 0 0 0 0 0 0 0 0
0 0 0 0 0 0 0 0 0 0 0 1 1 1 1 1 1 1 1 1 1 1 1 1 1 1 1 1 1 1 0 0 0 0 0 0 0 0 0 0 0 0 0 0 0 0 0 0 0
0 0 0 0 0 0 0 0 0 0 1 1 1 1 1 1 1 1 1 1 1 1 1 1 1 1 1 1 1 0 0 0 0 0 0 0 0 0 0 0 0 0 0 0 0 0 0 0 0
0 0 0 0 0 0 0 0 0 0 1 1 1 1 1 1 1 1 1 1 1 0 1 1 1 1 1 0 0 0 0 0 0 0 0 0 0 0 0 0 0 0 0 0 0 0 0 0 0
0 0 0 0 0 0 0 0 0 1 1 1 1 1 1 1 1 1 1 1 0 0 1 1 1 1 1 0 0 0 0 0 0 0 0 0 0 0 0 0 0 0 0 0 0 0 0 0 0
0 0 0 0 0 0 0 0 0 0 1 1 1 1 1 1 1 1 1 1 0 0 0 1 1 1 0 0 0 0 0 0 0 0 0 0 0 0 0 0 0 0 0 0 0 0 0 0 0
0 0 0 0 0 0 0 0 0 0 0 1 1 1 1 1 1 1 1 1 0 0 0 0 0 0 0 0 0 0 0 0 0 0 0 0 0 0 0 0 0 0 0 0 0 0 0 0 0
0 0 0 0 0 0 0 0 0 0 0 0 1 1 1 1 1 1 1 1 0 0 0 0 0 0 0 0 0 0 0 0 0 0 0 0 0 0 0 0 0 0 0 0 0 0 0 0 0
0 0 0 0 0 0 0 0 0 0 0 0 0 1 1 1 1 1 1 0 0 0 0 0 0 0 0 0 0 0 0 0 0 0 0 0 0 0 0 0 0 0 0 0 0 0 0 0 0
0 0 0 0 0 0 0 0 0 0 0 0 0 0 1 1 1 1 1 0 0 0 0 0 0 0 0 0 0 0 0 0 0 0 0 0 0 0 0 0 0 0 0 0 0 0 0 0 0
0 0 0 0 0 0 0 0 0 0 0 0 0 0 0 1 1 1 1 0 0 0 0 0 0 0 0 0 0 0 0 0 0 0 0 0 0 0 0 0 0 0 0 0 0 0 0 0 0
0 0 0 0 0 0 0 0 0 0 0 0 0 0 0 1 1 1 0 0 0 0 0 0 0 0 0 0 0 0 0 0 0 0 0 0 0 0 0 0 0 0 0 0 0 0 0 0 0
Wind_Speed
9 12 11 8 7 6 8 8 5 7 8 9 8 7 11 10 8 9 8 16 23 22 19 18 16 16 15 15 14 14 14 14 13 13 13 12 12 12 12 13 13 13 13 13 13 13 13 13 12
10 13 10 8 8 7 5 5 6 7 7 6 5 6 11 10 12 12 11 17 23 21 18 17 18 16 15 15 14 14 14 14 13 13 12 12 12 12 12 12 12 12 12 13 13 13 13 12 10
13 16 9 9 11 9 2 2 4 4 5 4 4 6 8 9 10 10 13 17 20 20 18 19 19 17 16 15 14 14 14 14 13 13 12 12 11 11 11 12 12 12 12 12 12 12 12 11 9
9 10 8 10 12 8 4 4 4 3 3 2 3 8 9 8 8 12 15 17 19 20 19 19 19 17 16 16 15 14 14 14 13 13 12 11 11 11 11 11 11 11 11 12 12 11 10 9 8
10 9 11 13 13 5 3 5 4 3 1 2 5 9 8 9 11 14 14 16 18 20 19 19 19 17 16 16 15 14 14 13 13 12 12 11 11 10 11 11 11 11 11 11 11 10 9 8 6
9 10 12 12 9 2 3 4 3 3 3 4 5 8 7 9 11 12 13 13 16 19 20 18 18 18 16 16 15 14 13 13 12 12 11 11 10 10 10 10 10 10 10 9 9 9 8 7 5
11 12 15 15 8 3 3 4 4 3 4 5 4 6 8 10 9 11 12 11 15 18 18 16 16 15 16 16 15 14 13 12 12 11 11 11 10 10 10 10 9 9 9 8 8 7 6 5 3
11 11 16 13 7 2 3 2 3 3 3 4 4 5 7 10 10 12 12 11 14 17 17 15 14 13 13 13 14 14 13 12 11 11 10 10 10 10 10 10 9 9 8 7 6 5 4 3 1
13 12 12 10 6 3 2 2 2 2 2 4 7 9 13 13 13 13 12 12 11 14 13 14 14 12 12 12 13 13 12 11 11 9 10 9 6 7 8 10 10 9 8 6 5 4 3 3 4
10 10 11 8 7 7 4 2 2 1 1 3 7 9 14 14 13 12 12 14 13 13 13 11 12 11 11 10 10 8 8 8 7 6 7 5 3 4 7 10 10 9 8 6 5 4 4 5 3
11 11 10 7 6 7 7 4 2 2 2 3 5 5 9 12 12 11 10 11 12 12 11 11 9 7 8 7 8 5 4 5 5 6 5 2 2 4 5 4 5 5 6 4 5 4 3 1 0
11 9 8 7 6 6 7 6 3 2 5 6 7 7 10 11 11 11 10 9 10 10 11 11 9 5 5 7 5 5 5 4 4 5 4 3 1 2 3 2 3 3 2 2 2 0 0 1 2
11 10 8 6 6 6 6 5 4 1 6 5 6 7 9 10 11 10 11 10 10 9 9 10 9 7 5 5 3 5 4 4 5 4 3 3 2 2 2 1 1 1 2 2 1 1 1 1 1
10 8 9 7 7 6 6 5 4 1 5 5 4 5 7 10 11 10 10 10 11 10 10 9 8 7 6 5 3 4 4 4 4 4 4 3 3 3 3 2 1 1 2 2 1 2 1 0 1
11 10 9 8 9 10 6 5 2 4 4 4 3 5 7 9 9 11 11 10 10 10 10 9 8 7 7 7 5 4 4 5 5 4 4 3 3 3 2 2 2 1 2 3 2 1 1 1 1
12 11 11 12 13 9 7 4 3 7 6 4 4 6 8 9 10 9 11 11 10 9 10 9 9 9 7 6 4 3 4 5 4 4 4 4 3 3 2 2 2 2 2 2 2 1 1 0 0
12 13 14 11 10 8 6 3 5 6 6 6 6 7 8 9 9 9 10 10 10 9 9 8 9 10 8 7 4 4 4 4 4 4 4 4 3 3 2 2 2 0 1 2 1 2 1 0 1
11 11 10 8 8 8 6 4 7 8 7 7 8 7 8 9 9 9 9 10 10 9 8 8 9 8 8 6 4 4 4 3 4 5 4 4 3 3 2 3 2 1 2 2 2 1 1 1 1
13 12 10 8 4 5 6 5 7 8 8 7 8 9 9 9 10 10 10 10 10 9 9 8 8 8 6 5 5 5 4 3 4 5 5 4 3 3 2 3 2 1 3 2 1 0 1 1 0
13 13 11 8 5 6 7 7 7 8 8 8 9 9 10 11 12 12 11 10 10 9 9 8 8 8 6 5 4 4 4 3 4 4 4 4 4 3 3 3 2 2 2 2 1 0 1 1 1
13 11 10 10 9 9 8 8 6 8 9 10 11 10 11 13 14 13 12 11 11 11 10 9 8 8 7 7 5 5 3 2 4 5 4 3 4 3 3 3 2 2 2 2 1 1 1 1 0
11 9 11 12 11 8 6 6 8 12 12 12 12 12 12 13 14 14 13 12 11 11 10 10 9 8 8 7 6 7 6 4 5 5 4 4 3 4 4 3 2 1 2 2 1 2 1 1 1
12 9 10 11 10 10 9 9 6 11 11 12 13 14 14 14 14 14 13 13 13 12 11 11 10 8 8 6 7 6 5 5 5 5 6 5 4 3 4 3 2 1 2 3 3 3 2 2 3
10 10 9 7 6 9 11 10 5 9 13 14 15 15 15 15 15 14 14 13 12 12 12 12 10 8 8 7 7 5 5 6 7 7 7 4 4 3 4 4 3 2 2 3 2 2 1 2 3
11 10 6 5 3 8 11 9 4 9 13 15 17 17 17 16 15 15 15 15 14 14 13 12 11 9 8 7 7 6 5 5 6 6 6 5 5 4 4 4 3 2 3 2 2 1 1 2 2
12 12 9 7 6 5 5 6 2 6 10 13 15 16 17 17 16 16 16 15 15 15 14 13 12 10 9 8 7 6 6 5 5 5 4 4 3 5 6 5 4 3 3 2 2 1 2 2 0
14 12 12 11 12 8 3 3 2 4 10 13 15 16 17 18 18 17 16 16 15 15 14 15 13 11 9 9 8 7 6 5 5 5 3 3 4 6 6 5 4 3 2 2 1 1 1 2 1
15 11 8 8 8 8 4 3 2 4 8 11 14 16 17 18 18 17 16 16 14 14 13 14 14 12 10 9 9 8 6 4 5 5 4 4 5 6 6 4 4 4 3 2 2 2 2 2 1
11 12 9 8 7 7 5 2 4 8 8 11 14 15 17 18 18 17 15 15 15 15 15 14 14 13 11 10 8 8 8 6 6 4 5 5 5 6 5 4 4 4 4 3 2 2 2 2 2
12 12 12 10 8 8 6 2 4 5 7 9 13 16 17 17 17 17 17 16 15 15 15 14 14 13 12 10 8 8 8 8 7 7 6 6 5 5 5 5 4 5 5 4 4 4 3 3 3
Wind_Direction
235 242 237 248 245 247 277 298 17 49 52 47 40 48 69 58 68 101 133 122 118 122 129 132 131 133 133 131 129 126 123 119 114 110 106 102 98 95 92 90 89 89 89 88 87 86 83 83 83
254 253 244 247 253 259 268 303 25 49 64 70 65 65 83 73 84 114 124 118 120 126 135 133 132 132 132 131 130 128 126 123 119 115 110 106 103 99 95 94 93 91 91 91 90 88 84 83 82
259 261 262 250 257 271 298 12 47 59 64 56 73 67 69 82 90 112 121 124 124 130 129 130 135 133 133 132 131 130 129 126 123 118 115 111 107 103 98 97 96 95 93 93 91 88 86 83 80
254 242 239 256 268 286 344 23 25 44 85 85 82 85 72 79 104 120 131 130 129 130 128 134 136 134 134 133 132 131 130 127 125 122 119 115 111 108 103 101 100 99 96 93 92 90 86 82 77
243 256 249 261 269 291 15 13 353 346 66 77 78 92 92 89 109 126 135 133 136 130 129 136 137 136 135 135 135 133 131 129 128 126 123 118 115 113 110 107 105 103 100 97 95 92 87 82 73
254 254 263 269 276 331 23 22 346 347 1 61 87 105 97 105 115 134 138 138 132 129 131 135 138 138 137 137 135 134 134 133 132 130 129 125 122 120 116 114 111 108 106 103 100 96 91 84 71
259 276 280 282 288 319 50 19 350 356 3 40 54 96 116 115 128 143 135 136 127 127 130 139 141 141 140 139 139 138 138 138 137 137 136 134 133 132 127 121 117 115 113 111 108 104 99 93 78
257 278 286 289 296 353 74 42 3 357 32 53 56 92 125 130 150 143 135 124 125 128 134 141 144 145 147 144 144 144 145 145 145 145 146 146 147 146 142 138 129 126 123 121 121 122 123 131 163
255 263 278 294 322 0 47 24 18 43 50 59 55 86 126 143 151 145 139 130 127 128 133 141 143 151 153 151 147 150 151 153 153 156 161 165 172 162 160 140 138 136 135 135 139 149 170 197 214
239 256 276 317 343 344 360 11 337 290 41 61 78 99 130 145 148 153 151 142 136 134 138 141 146 156 158 151 145 157 160 157 172 160 172 189 178 146 140 137 144 147 150 155 166 187 217 233 221
247 261 286 315 337 330 326 333 329 307 50 64 95 140 148 147 149 156 155 145 139 143 140 135 143 154 149 136 154 154 144 152 173 153 173 179 135 127 126 142 144 157 168 175 167 199 232 221 355
251 269 286 303 326 315 308 316 332 7 78 112 135 169 160 158 158 159 151 143 144 146 140 137 138 133 127 135 148 142 141 161 154 148 172 136 104 96 115 134 153 164 160 144 143 173 11 14 357
246 259 267 270 280 277 292 299 294 45 98 110 135 155 157 162 157 154 149 146 149 143 139 136 141 140 122 111 138 140 135 150 134 139 147 139 138 125 113 103 130 138 123 132 140 144 77 354 333
273 271 270 273 275 268 266 273 262 142 123 126 135 148 161 156 158 152 147 151 151 150 144 138 140 135 129 128 136 122 128 125 123 129 135 141 128 122 129 140 137 114 119 122 153 136 136 284 321
273 273 278 275 261 256 252 266 243 131 134 138 141 129 136 141 150 154 158 154 154 154 143 138 139 138 140 144 153 133 132 134 125 122 122 121 123 133 149 149 157 139 143 148 149 141 153 207 273
278 267 265 253 240 231 238 258 143 156 157 154 139 132 135 134 149 151 150 152 152 147 144 151 150 144 139 132 135 133 132 130 126 127 123 119 121 147 160 148 141 157 160 143 144 134 131 118 289
260 256 255 251 224 224 231 244 164 168 162 156 149 148 144 139 142 141 146 151 144 140 144 149 139 143 141 136 135 115 103 120 127 123 121 129 135 143 127 102 92 146 115 94 94 89 75 289 293
260 264 264 254 211 214 234 213 184 177 177 161 152 149 146 144 147 144 140 143 137 137 140 142 137 140 140 134 124 117 120 123 113 111 118 130 132 122 113 114 109 122 92 80 74 82 177 240 255
270 283 290 290 264 246 244 227 198 177 176 164 153 149 155 151 150 146 144 143 142 141 148 147 142 141 140 142 145 144 147 139 127 125 131 131 122 122 101 106 122 95 93 94 93 71 238 227 47
270 277 283 286 279 267 261 243 202 183 186 176 161 159 162 157 154 152 152 153 151 149 149 147 147 147 148 144 138 143 137 147 130 116 133 139 136 142 137 111 139 103 112 116 123 85 318 294 102
269 276 283 278 264 254 264 259 211 191 180 173 169 168 169 166 164 161 161 159 157 158 159 156 150 148 145 142 134 130 123 131 122 133 145 144 144 140 99 111 88 94 124 111 89 15 359 356 339
269 271 276 278 275 275 259 261 219 187 184 178 174 171 171 170 163 163 163 159 159 158 156 147 146 145 143 147 149 155 162 159 147 147 140 144 146 139 128 117 98 74 89 112 178 100 357 345 327
275 282 283 288 291 285 269 260 221 175 185 183 175 173 171 168 164 164 166 162 161 158 154 149 145 144 146 152 156 165 159 147 140 132 135 147 143 147 140 129 119 108 88 87 59 65 20 357 3
269 273 277 286 296 283 275 270 223 181 184 187 179 172 169 167 162 160 160 159 160 158 155 151 147 148 153 160 158 168 157 147 141 142 148 164 156 163 150 140 134 125 99 93 81 62 66 43 30
245 253 260 268 246 251 269 270 220 183 173 175 173 168 166 165 163 164 163 163 162 162 158 153 152 156 161 161 158 164 154 148 145 156 164 181 162 156 145 132 129 112 105 116 110 104 60 53 37
243 247 252 264 260 260 267 259 188 155 150 155 160 163 163 165 166 168 168 166 167 164 161 157 159 163 165 162 158 159 157 164 161 176 173 181 157 133 135 132 144 141 155 148 122 177 162 130 118
246 245 256 263 270 271 245 256 114 143 143 147 156 162 167 168 168 169 170 169 169 167 165 163 163 165 166 162 159 162 175 180 158 158 179 155 128 134 139 145 149 150 144 115 128 204 89 118 233
243 250 261 269 280 284 272 280 183 209 173 160 164 167 168 168 169 170 171 172 171 168 166 164 164 167 168 165 169 170 173 158 147 162 165 131 119 115 140 153 157 161 158 169 204 220 179 164 203
239 243 253 267 271 282 284 274 199 205 189 173 172 169 168 171 171 170 170 171 170 168 168 167 167 168 170 171 179 164 168 164 163 167 154 136 134 138 154 166 171 174 178 183 199 252 183 200 232
262 250 246 251 258 277 286 248 197 197 186 179 174 168 169 172 171 169 170 170 172 172 171 171 171 172 174 172 172 168 169 169 175 174 163 157 157 164 173 179 185 194 190 187 203 237 227 217 227